This is the latest recevied weather packets stored in our database for station/object KT5AL. If no packets are shown the sender has not sent any weather packets the latest 1 day(s).
| Time | Temp. | Humidity | Pressure | Rain* | Wind** | Luminosity | Snow |
|---|---|---|---|---|---|---|---|
| 1778036404 | 16.11° C | 93% | 1011 hPa | 0 mm | 5.81 m/s, 337° | - | - |
| 1778036107 | 16.11° C | 93% | 1010.7 hPa | 0 mm | 4.47 m/s, 337° | - | - |
| 1778035809 | 16.11° C | 93% | 1010.7 hPa | 0 mm | 4.02 m/s, 337° | - | - |
| 1778035506 | 16.67° C | 93% | 1010.4 hPa | 0 mm | 4.02 m/s, 360° | - | - |
| 1778035203 | 16.67° C | 92% | 1010.4 hPa | 0 mm | 4.02 m/s, 360° | - | - |
| 1778034905 | 16.67° C | 92% | 1010.4 hPa | 0 mm | 4.47 m/s, 315° | - | - |
| 1778034603 | 16.67° C | 92% | 1010.4 hPa | 0 mm | 4.92 m/s, 337° | - | - |
| 1778034306 | 16.67° C | 91% | 1009.7 hPa | 0 mm | 3.58 m/s, 360° | - | - |
| 1778034003 | 16.67° C | 91% | 1009.7 hPa | 0 mm | 5.36 m/s, 22° | - | - |
| 1778033705 | 17.22° C | 90% | 1009.4 hPa | 0 mm | 4.92 m/s, 360° | - | - |
| 1778033403 | 17.22° C | 90% | 1009.4 hPa | 0 mm | 5.81 m/s, 337° | - | - |
| 1778033106 | 17.22° C | 89% | 1008.7 hPa | 0 mm | 4.47 m/s, 337° | - | - |
| 1778032803 | 17.78° C | 90% | 1008.7 hPa | 0 mm | 4.92 m/s, 360° | - | - |
| 1778032506 | 17.78° C | 89% | 1008.7 hPa | 0 mm | 4.02 m/s, 22° | - | - |
| 1778032235 | 18.33° C | 88% | 1008.7 hPa | 0 mm | 4.47 m/s, 337° | - | - |
| 1778031906 | 18.33° C | 88% | 1008.3 hPa | 0 mm | 4.47 m/s, 360° | - | - |
| 1778031603 | 18.33° C | 87% | 1008.3 hPa | 0 mm | 2.68 m/s, 337° | - | - |
| 1778031306 | 18.33° C | 87% | 1008 hPa | 0 mm | 2.68 m/s, 337° | - | - |
| 1778031002 | 18.33° C | 86% | 1008 hPa | 0 mm | 3.58 m/s, 337° | - | - |
| 1778030706 | 18.33° C | 86% | 1008 hPa | 0 mm | 3.13 m/s, 337° | - | - |
| 1778030403 | 18.33° C | 85% | 1008 hPa | 0 mm | 2.24 m/s, 360° | - | - |
| 1778030106 | 18.33° C | 85% | 1007.3 hPa | 0 mm | 2.24 m/s, 22° | - | - |
| 1778029803 | 18.33° C | 85% | 1007.3 hPa | 0 mm | 3.13 m/s, 337° | - | - |
| 1778029505 | 18.89° C | 84% | 1006.6 hPa | 0 mm | 4.47 m/s, 337° | - | - |
| 1778029203 | 18.89° C | 83% | 1006.6 hPa | 0 mm | 4.92 m/s, 337° | - | - |
* Rain latest hour (hover to see other rain measurements)
** Current wind speed in m/s (hover to see current wind gust speed)